This demonstration page uses our WeatherBlox Daily Observations layout. Learn more.

Hourly Observations for June 16, 2015

Temp ( °F °C ) Dew Point ( °F °C ) Humidity (%) Winds ( mph kmh ) Pressure ( in mb ) Visibility ( mi km ) Precip ( " mm )
12:15 am 00:15 Clear 59 15.1 56 13.5 90 90 ENE 6 9 30.15 1021 10 16.0934 0 0
12:35 am 00:35 Clear 59 15.1 56 13.6 91 91 NE 5 7 30.15 1021 10 16.0934 0 0
12:55 am 00:55 Clear 59 14.9 56 13.4 91 91 NE 6 9 30.15 1021 10 16.0934 0 0
1:15 am 01:15 Clear 59 15.2 56 13.2 88 88 ENE 7 11 30.15 1021 10 16.0934 0 0
1:35 am 01:35 Clear 59 14.9 55 13 89 89 ENE 6 9 30.15 1021 10 16.0934 0 0
1:55 am 01:55 Clear 59 15.1 55 12.8 86 86 E 7 11 30.15 1021 10 16.0934 0 0
2:15 am 02:15 Clear 59 14.9 55 12.6 86 86 E 7 11 30.15 1021 10 16.0934 0 0
2:35 am 02:35 Clear 59 14.8 54 12.2 85 85 E 6 9 30.15 1021 10 16.0934 0 0
2:55 am 02:55 Clear 57 13.7 54 12 90 90 ENE 5 7 30.18 1022 10 16.0934 0 0
3:15 am 03:15 Clear 57 13.7 53 11.9 89 89 Calm 30.18 1022 10 16.0934 0 0
3:35 am 03:35 Clear 57 14.1 54 12 87 87 Calm 30.18 1022 10 16.0934 0 0
3:55 am 03:55 Clear 57 14.1 53 11.8 86 86 Calm 30.18 1022 10 16.0934 0 0
4:15 am 04:15 Clear 56 13.3 52 11.3 88 88 E 6 9 30.18 1022 10 16.0934 0 0
4:35 am 04:35 Clear 56 13.5 53 11.6 88 88 ESE 6 9 30.18 1022 10 16.0934 0 0
4:55 am 04:55 Clear 55 13 52 11.2 89 89 ESE 6 9 30.18 1022 10 16.0934 0 0
5:15 am 05:15 Clear 55 13 52 11.3 90 90 Calm 30.18 1022 10 16.0934 0 0
5:35 am 05:35 Clear 55 12.9 52 11 88 88 SSE 5 7 30.15 1021 10 16.0934 0 0
5:55 am 05:55 Clear 55 12.6 51 10.8 89 89 SE 5 7 30.15 1021 10 16.0934 0 0
6:15 am 06:15 Sunny 55 12.6 52 11.2 91 91 SE 6 9 30.15 1021 10 16.0934 0 0
6:35 am 06:35 Sunny 55 12.7 52 11.1 90 90 S 5 7 30.15 1021 10 16.0934 0 0
6:55 am 06:55 Sunny 56 13.5 53 11.7 89 89 Calm 30.12 1020 10 16.0934 0 0
7:15 am 07:15 Sunny 58 14.3 54 12.1 87 87 Calm 30.12 1020 10 16.0934 0 0
7:35 am 07:35 Sunny 59 15 55 12.5 85 85 SSE 5 7 30.12 1020 10 16.0934 0 0
7:55 am 07:55 Sunny 61 15.9 55 12.9 83 83 SE 6 9 30.12 1020 10 16.0934 0 0
8:15 am 08:15 Sunny 62 16.6 55 13 79 79 SE 10 17 30.12 1020 10 16.0934 0 0
8:35 am 08:35 Sunny 63 17.4 55 12.9 75 75 SSE 13 20 30.12 1020 10 16.0934 0 0
8:55 am 08:55 Sunny 64 18 56 13.2 74 74 SE 13 20 30.09 1019 10 16.0934 0 0
9:15 am 09:15 Sunny 66 18.8 56 13.2 70 70 SE 12 19 30.09 1019 10 16.0934 0 0
9:35 am 09:35 Sunny 67 19.7 56 13.5 68 68 SE 16 26 30.09 1019 10 16.0934 0 0
9:55 am 09:55 Sunny 67 19.5 56 13.2 67 67 SE 15 24 30.09 1019 10 16.0934 0 0
10:15 am 10:15 Sunny 66 19.1 56 13.5 70 70 SSE 12 19 30.09 1019 10 16.0934 0 0
10:35 am 10:35 Sunny 69 20.5 58 14.3 68 68 SSE 13 20 30.03 1017 10 16.0934 0 0
10:55 am 10:55 Sunny 69 20.8 58 14.2 66 66 SSE 14 22 30.03 1017 10 16.0934 0 0
11:15 am 11:15 Partly Cloudy 70 21.3 58 14.2 64 64 S 10 17 30.03 1017 10 16.0934 0 0
11:35 am 11:35 Partly Cloudy 71 21.4 58 14.4 65 65 S 10 17 30.06 1018 10 16.0934 0 0
11:55 am 11:55 Partly Cloudy 72 22.1 58 14.5 62 62 S 8 13 30.06 1018 10 16.0934 0 0
12:15 pm 12:15 Partly Cloudy 73 22.5 59 14.9 62 62 S 10 17 30.06 1018 10 16.0934 0 0
12:35 pm 12:35 Partly Cloudy 73 22.8 59 15.1 62 62 S 12 19 30.03 1017 10 16.0934 0 0
12:55 pm 12:55 Sunny 74 23.3 58 14.7 59 59 S 10 17 30.03 1017 10 16.0934 0 0
1:15 pm 13:15 Sunny 74 23.4 58 14.4 57 57 SSE 13 20 30.03 1017 10 16.0934 0 0
1:35 pm 13:35 Sunny 75 24 58 14.4 55 55 S 10 17 30.03 1017 10 16.0934 0 0
1:55 pm 13:55 Sunny 75 24 58 14.2 54 54 S 13 20 30.03 1017 10 16.0934 0 0
2:15 pm 14:15 Sunny 76 24.5 57 14 52 52 S 15 24 29.97 1015 10 16.0934 0 0
2:35 pm 14:35 Sunny 77 24.8 58 14.4 52 52 SSE 13 20 29.97 1015 10 16.0934 0 0
2:55 pm 14:55 Sunny 77 25 58 14.3 52 52 S 15 24 29.94 1014 10 16.0934 0 0
3:15 pm 15:15 Sunny 77 24.8 58 14.2 52 52 S 12 19 29.94 1014 10 16.0934 0 0
3:35 pm 15:35 Sunny 77 25.1 56 13.5 49 49 S 15 24 29.94 1014 10 16.0934 0 0
3:55 pm 15:55 Sunny 78 25.4 58 14.2 50 50 S 13 20 29.94 1014 10 16.0934 0 0
4:15 pm 16:15 Partly Cloudy 78 25.3 57 14 50 50 S 13 20 29.94 1014 10 16.0934 0 0
4:35 pm 16:35 Sunny 78 25.8 58 14.5 50 50 SSW 12 19 29.91 1013 10 16.0934 0 0
4:55 pm 16:55 Sunny 78 25.8 56 13.4 46 46 S 13 20 29.91 1013 10 16.0934 0 0
5:15 pm 17:15 Sunny 78 25.8 57 13.9 48 48 SSE 13 20 29.91 1013 10 16.0934 0 0
5:35 pm 17:35 Sunny 79 26 57 13.9 47 47 SSE 12 19 29.88 1012 10 16.0934 0 0
5:55 pm 17:55 Sunny 79 26 57 13.7 47 47 S 10 17 29.88 1012 10 16.0934 0 0
6:15 pm 18:15 Sunny 79 26.1 57 13.9 47 47 S 9 15 29.88 1012 10 16.0934 0 0
6:35 pm 18:35 Sunny 78 25.8 58 14.2 49 49 S 13 20 29.88 1012 10 16.0934 0 0
6:55 pm 18:55 Sunny 79 26.1 57 13.8 47 47 S 12 19 29.88 1012 10 16.0934 0 0
7:15 pm 19:15 Sunny 78 25.7 57 14.1 49 49 SSE 14 22 29.88 1012 10 16.0934 0 0
7:35 pm 19:35 Sunny 78 25.5 58 14.3 50 50 SSE 14 22 29.85 1011 10 16.0934 0 0
7:55 pm 19:55 Sunny 77 25.1 58 14.2 51 51 SSE 10 17 29.85 1011 10 16.0934 0 0
8:15 pm 20:15 Sunny 76 24.5 59 14.8 55 55 SSE 9 15 29.85 1011 10 16.0934 0 0
8:35 pm 20:35 Sunny 74 23.6 59 14.9 58 58 SSE 9 15 29.85 1011 10 16.0934 0 0
8:55 pm 20:55 Sunny 72 22.4 60 15.5 65 65 SSE 7 11 29.88 1012 10 16.0934 0 0
9:15 pm 21:15 Clear 72 22 60 15.6 67 67 SE 8 13 29.91 1013 10 16.0934 0 0
9:35 pm 21:35 Clear 71 21.4 60 15.8 71 71 SE 8 13 29.91 1013 10 16.0934 0 0
9:55 pm 21:55 Clear 70 21.2 60 15.7 71 71 SE 9 15 29.91 1013 7 11.26538 0 0
10:15 pm 22:15 Clear 70 21 60 15.6 71 71 SE 8 13 29.91 1013 7 11.26538 0 0
10:35 pm 22:35 Clear 69 20.5 61 16 76 76 SE 9 15 29.91 1013 7 11.26538 0 0
10:55 pm 22:55 Hazy 69 20.5 61 16.3 77 77 SSE 13 20 29.91 1013 5 8.0467 0 0

Powered by AerisWeather